Weather History for Oscoda, MI

Change the Weather History Date:

Monday, July 22, 2013

  Actual Average Record
Temperature  
Mean Temperature 72 °F -  
Max Temperature 82 °F 77 °F 91 °F (2002)
Min Temperature 63 °F 57 °F 46 °F (2007)
Cooling Degree Days 8    
Growing Degree Days 22 (Base 50)    
Moisture  
Dew Point 62 °F    
Average Humidity 68    
Maximum Humidity 86    
Minimum Humidity 50    
Precipitation  
Precipitation 0.02 in - - ()
Sea Level Pressure  
Sea Level Pressure 29.85 in    
Wind  
Wind Speed 7 mph (SSE)    
Max Wind Speed 16 mph    
Max Gust Speed 24 mph    
Visibility 10 miles    
Events Rain    
Averages and records for this station are not official NWS values.
T = Trace of Precipitation, MM = Missing Value Source: NWS Daily Summary

Daily Weather History Graph

Daily Weather History Graph

Search for Another Location

Airport:

Trip Planner

Search our weather history database for the weather conditions in past years. The results will help you decide how hot, cold, wet, or windy it might be!

Date:

Astronomy

Jul. 22, 2013 Rise Set
Actual Time 6:10 AM EDT 9:09 PM EDT
Civil Twilight 5:35 AM EDT 9:43 PM EDT
Nautical Twilight 4:51 AM EDT 10:27 PM EDT
Astronomical Twilight 3:58 AM EDT 11:19 PM EDT
Moon 8:50 PM EDT (7/22) 6:07 AM EDT (7/22)
Length of Visible Light 16h 08m
Length of Day
14h 59m
Full, 100% of the Moon is Illuminated
Jul 22
Full
Jul 22
Full
Jul 29
Last Quarter
Aug 6
New
Aug 14
First Quarter

Hourly Weather History & Observations

Time (EDT) Temp. Heat Index Dew Point Humidity Pressure Visibility Wind Dir Wind Speed Gust Speed Precip Events Conditions
12:14 AM 66.0 °F - 56.7 °F 72% 29.98 in 10.0 mi East 6.9 mph - N/A   Clear
12:34 AM 66.2 °F - 57.4 °F 73% 29.98 in 10.0 mi ESE 6.9 mph - N/A   Scattered Clouds
12:54 AM 66.4 °F - 57.2 °F 72% 29.98 in 10.0 mi ESE 3.5 mph - N/A   Mostly Cloudy
1:14 AM 66.7 °F - 57.2 °F 71% 29.98 in 10.0 mi ESE 4.6 mph - N/A   Overcast
1:34 AM 66.7 °F - 58.1 °F 74% 29.97 in 10.0 mi ESE 4.6 mph - N/A   Overcast
1:54 AM 67.1 °F - 57.9 °F 72% 29.96 in 10.0 mi SE 5.8 mph - N/A   Overcast
2:14 AM 67.1 °F - 58.1 °F 73% 29.96 in 10.0 mi SSE 3.5 mph - N/A   Overcast
2:34 AM 63.9 °F - 57.7 °F 80% 29.95 in 10.0 mi Calm Calm - N/A   Overcast
2:54 AM 65.1 °F - 58.1 °F 78% 29.95 in 10.0 mi SE 3.5 mph - N/A   Overcast
3:14 AM 66.7 °F - 57.9 °F 73% 29.94 in 10.0 mi SSE 3.5 mph - N/A   Mostly Cloudy
3:34 AM 67.1 °F - 58.1 °F 73% 29.95 in 10.0 mi SSE 3.5 mph - N/A   Overcast
3:54 AM 64.6 °F - 58.5 °F 80% 29.94 in 10.0 mi Calm Calm - N/A   Overcast
4:14 AM 66.2 °F - 58.3 °F 76% 29.95 in 10.0 mi South 4.6 mph - N/A   Overcast
4:33 AM 64.0 °F - 59.7 °F 86% 29.95 in 10.0 mi West 6.9 mph - N/A Rain Rain
4:54 AM 64.4 °F - 59.7 °F 85% 29.94 in 10.0 mi Calm Calm - N/A   Overcast
5:14 AM 64.9 °F - 59.9 °F 84% 29.93 in 10.0 mi Calm Calm - N/A   Overcast
5:33 AM 65.5 °F - 58.6 °F 79% 29.92 in 10.0 mi SE 3.5 mph - N/A   Overcast
5:54 AM 65.3 °F - 58.1 °F 77% 29.92 in 10.0 mi SE 3.5 mph - N/A   Overcast
6:14 AM 65.7 °F - 58.1 °F 77% 29.92 in 10.0 mi Calm Calm - N/A   Overcast
6:33 AM 65.7 °F - 58.3 °F 77% 29.92 in 10.0 mi SSE 3.5 mph - N/A   Mostly Cloudy
6:54 AM 64.2 °F - 59.2 °F 84% 29.93 in 10.0 mi Calm Calm - N/A   Clear
7:14 AM 65.5 °F - 59.2 °F 80% 29.91 in 10.0 mi Calm Calm - N/A   Clear
7:33 AM 66.9 °F - 59.9 °F 78% 29.91 in 10.0 mi SE 4.6 mph - N/A   Clear
7:54 AM 67.8 °F - 60.1 °F 76% 29.90 in 10.0 mi SSE 5.8 mph - N/A   Clear
8:14 AM 68.4 °F - 60.6 °F 76% 29.90 in 10.0 mi SSE 4.6 mph - N/A   Clear
8:33 AM 69.8 °F - 61.3 °F 74% 29.90 in 10.0 mi SSE 8.1 mph - N/A   Clear
8:54 AM 70.2 °F - 61.7 °F 74% 29.91 in 10.0 mi SE 5.8 mph - N/A   Scattered Clouds
9:14 AM 71.6 °F - 62.2 °F 72% 29.91 in 10.0 mi SE 5.8 mph - N/A   Clear
9:34 AM 72.5 °F - 60.6 °F 66% 29.90 in 10.0 mi SSE 8.1 mph - N/A   Mostly Cloudy
9:54 AM 72.5 °F - 58.8 °F 62% 29.90 in 10.0 mi South 6.9 mph - N/A   Overcast
10:14 AM 72.9 °F - 59.5 °F 63% 29.90 in 10.0 mi SSE 6.9 mph - N/A   Overcast
10:34 AM 74.5 °F - 60.1 °F 61% 29.90 in 10.0 mi SSE 8.1 mph - N/A   Overcast
10:54 AM 76.1 °F - 60.1 °F 57% 29.90 in 10.0 mi SSE 12.7 mph - N/A   Mostly Cloudy
11:14 AM 75.9 °F - 60.3 °F 58% 29.89 in 10.0 mi SSE 10.4 mph - N/A   Scattered Clouds
11:34 AM - - - N/A% - - North - - N/A   Unknown
11:54 AM 78.3 °F - 62.6 °F 58% 29.89 in 10.0 mi South 11.5 mph - 0.02 in   Scattered Clouds
12:14 PM 77.5 °F - 63.3 °F 61% 29.89 in 10.0 mi South 13.8 mph 17.3 mph N/A   Mostly Cloudy
12:34 PM 79.2 °F - 64.0 °F 60% 29.87 in 10.0 mi South 8.1 mph - N/A   Scattered Clouds
12:54 PM 79.0 °F - 64.0 °F 60% 29.87 in 10.0 mi South 13.8 mph 19.6 mph N/A   Clear
1:14 PM 79.2 °F - 64.0 °F 60% 29.87 in 10.0 mi SSW 11.5 mph 19.6 mph N/A   Clear
1:34 PM 79.9 °F - 64.2 °F 59% 29.86 in 10.0 mi South 12.7 mph 18.4 mph N/A   Scattered Clouds
1:54 PM 80.2 °F 81.8 °F 63.5 °F 57% 29.85 in 10.0 mi South 10.4 mph 17.3 mph N/A   Clear
2:13 PM 81.1 °F 82.0 °F 61.7 °F 51% 29.85 in 10.0 mi SSE 12.7 mph 18.4 mph N/A   Scattered Clouds
2:34 PM 81.1 °F 81.9 °F 61.0 °F 50% 29.85 in 10.0 mi South 13.8 mph - N/A   Clear
2:54 PM 80.4 °F 81.6 °F 62.6 °F 54% 29.84 in 10.0 mi South 13.8 mph 24.2 mph N/A   Clear
3:13 PM 81.1 °F 82.4 °F 63.1 °F 54% 29.83 in 10.0 mi South 15.0 mph 23.0 mph N/A   Clear
3:34 PM 81.5 °F 82.8 °F 63.1 °F 54% 29.82 in 10.0 mi South 16.1 mph 19.6 mph N/A   Clear
3:54 PM 81.5 °F 82.9 °F 63.7 °F 55% 29.81 in 10.0 mi SSE 13.8 mph 19.6 mph N/A   Clear
4:13 PM 82.4 °F 83.9 °F 64.2 °F 54% 29.80 in 10.0 mi SSE 15.0 mph - N/A   Clear
4:34 PM 81.7 °F 83.2 °F 64.0 °F 55% 29.80 in 10.0 mi SSE 15.0 mph 20.7 mph N/A   Clear
4:54 PM 82.0 °F 83.6 °F 64.2 °F 55% 29.79 in 10.0 mi South 11.5 mph 19.6 mph N/A   Clear
5:13 PM 81.7 °F 83.3 °F 64.4 °F 56% 29.78 in 10.0 mi South 15.0 mph 18.4 mph N/A   Clear
5:34 PM 82.0 °F 83.6 °F 64.6 °F 55% 29.77 in 10.0 mi South 10.4 mph 20.7 mph N/A   Clear
5:54 PM 81.7 °F 83.3 °F 64.8 °F 56% 29.77 in 10.0 mi SSE 13.8 mph 20.7 mph N/A   Clear
6:14 PM 81.5 °F 83.3 °F 65.1 °F 57% 29.76 in 10.0 mi South 10.4 mph 16.1 mph N/A   Clear
6:34 PM 80.6 °F 83.1 °F 67.5 °F 64% 29.76 in 10.0 mi SSE 10.4 mph - N/A   Clear
6:54 PM 79.2 °F - 67.3 °F 67% 29.75 in 10.0 mi SE 9.2 mph - N/A   Clear
7:14 PM 78.8 °F - 67.5 °F 68% 29.74 in 10.0 mi SSE 9.2 mph - N/A   Clear
7:34 PM 79.0 °F - 67.5 °F 68% 29.73 in 10.0 mi SSE 9.2 mph - N/A   Clear
7:54 PM 79.5 °F - 66.4 °F 64% 29.73 in 10.0 mi South 9.2 mph - N/A   Clear
8:14 PM 79.0 °F - 66.2 °F 65% 29.73 in 10.0 mi South 9.2 mph - N/A   Clear
8:34 PM 78.4 °F - 65.8 °F 65% 29.73 in 10.0 mi SSW 8.1 mph - N/A   Clear
8:54 PM 77.4 °F - 66.2 °F 68% 29.73 in 10.0 mi South 6.9 mph - N/A   Clear
9:14 PM 76.5 °F - 66.4 °F 71% 29.73 in 10.0 mi SSW 6.9 mph - N/A   Clear
9:34 PM 76.1 °F - 67.1 °F 74% 29.73 in 10.0 mi SSW 8.1 mph - N/A   Clear
9:53 PM 76.1 °F - 66.6 °F 72% 29.73 in 10.0 mi SSW 10.4 mph - N/A   Clear
10:14 PM 76.1 °F - 66.2 °F 71% 29.72 in 10.0 mi SSW 9.2 mph - N/A   Clear
10:34 PM 75.7 °F - 65.7 °F 71% 29.72 in 10.0 mi SSW 10.4 mph - N/A   Clear
10:54 PM 76.1 °F - 65.3 °F 69% 29.71 in 10.0 mi SSW 10.4 mph - N/A   Clear
11:14 PM 75.2 °F - 65.3 °F 71% 29.72 in 10.0 mi SSW 8.1 mph - N/A   Scattered Clouds
11:34 PM 75.2 °F - 65.5 °F 72% 29.73 in 10.0 mi SSW 8.1 mph - N/A   Clear
11:53 PM 74.7 °F - 65.3 °F 73% 29.73 in 10.0 mi SSW 9.2 mph - N/A   Clear